Погода в Илети

Россия / Республика Марий Эл     56°06′49″N   48°21′09″E
темп.,
°C
ветер,
м/с
пор.,
м/с
влажн.,
%
обл.,
%
осадки,
мм/ч
давл.,
гПа
погр.,
м
28 октября, чт
чт2800:00+5зюз71475100 0.1 1009978
03:00+4з61396100 1.4 1009774
06:00+5з61184100 0.1 1009992
09:00+6з6107698 0.1 1011845
12:00+7зюз61073100 0.0 1011985
15:00+8зюз5869100 0.0 1011888
18:00+6зюз2680100 0.1 1012263
21:00+6зсз2594100 1.7 1013420
29 октября, пт
пт2900:00+5с6888100 0.6 1015586
03:00+1ссв587022 0.6 1020646
06:00−3ссв37754 0.0 1024391
09:00−2св3461100 0.0 1026432
12:00+1вюв124519 0.0 1027570
15:00+1ююз23445 0.0 1027517
18:00−1ю3557100 0.0 1027103
21:000ююз41058100 0.0 1026293
30 октября, сб
сб3000:00+2ююз51273100 0.3 1024639
03:00+4юз61385100 0.9 1022619
06:00+5зюз6158814 0.0 1021453
09:00+6зюз61590100 0.0 1021529
12:00+9з6147991 0.0 1020647
15:00+10з6127825 0.0 1021616
18:00+8з512895 0.0 1022357
21:00+6з411945 0.0 1023277
31 октября, вс
вс3100:00+5з3796100 0.0 1024133
03:00+4з229799 0.0 102528
06:00+4юз229854 0.0 102523
09:00+7зюз399365 0.0 1025315
12:00+11з51167100 0.0 1025556
15:00+11зюз5126261 0.0 1023525
18:00+8зюз5147388 0.0 1024423
21:00+7з5137581 0.0 1024371
1 ноября, пн
пн100:00+6зюз5128169 0.0 1024315
03:00+5зюз4118549 0.0 1024272
06:00+4зюз41186100 0.0 1023263
09:00+6зюз51376100 0.0 1023413
12:00+9з51360100 0.0 1022574
15:00+9з51259100 0.0 1022485
18:00+7зюз51369100 0.0 1022343
21:00+6з41175100 0.0 1022271